Chelan, Washington, United States (98816)
Lat: 47.84N, Lon: 120.02W
Wx Zone: WAZ041
Local Info
Past Weather Observations for Today

NOTE: This archive is for the closest National Weather Service station to Chelan. Information may differ from the station used for current weather conditions.

Click here for Long-term Archive

Time Weather Temperature Dewpoint Humidity Pressure Winds Precip Visibility
22:55
Clear
34°F / 1°C 27°F / -3°C 75% 30.66 in
(1038 mb)
NW 3.5 mph
(NW 6 kph)
- 10SM
21:55
Clear
34°F / 1°C 27°F / -3°C 75% 30.66 in
(1038 mb)
Calm - 10SM
20:55
Clear
36°F / 2°C 27°F / -3°C 70% 30.66 in
(1038 mb)
SSW 4.6 mph
(SSW 7 kph)
- 10SM
19:55
Clear
37°F / 3°C 28°F / -2°C 70% 30.66 in
(1038 mb)
N 3.5 mph
(N 6 kph)
- 10SM
18:55
Clear
37°F / 3°C 28°F / -2°C 70% 30.66 in
(1038 mb)
N 3.5 mph
(N 6 kph)
- 10SM
17:55
Clear
37°F / 3°C 28°F / -2°C 70% 30.66 in
(1038 mb)
NW 3.5 mph
(NW 6 kph)
- 10SM
16:55
Clear
39°F / 4°C 28°F / -2°C 65% 30.63 in
(1037 mb)
Calm - 10SM
15:55
Clear
41°F / 5°C 28°F / -2°C 61% 30.63 in
(1037 mb)
Calm - 10SM
14:55
Clear
41°F / 5°C 27°F / -3°C 57% 30.63 in
(1037 mb)
Calm - 10SM
13:55
Clear
41°F / 5°C 27°F / -3°C 57% 30.63 in
(1037 mb)
Calm - 10SM
12:55
Clear
37°F / 3°C 27°F / -3°C 65% 30.63 in
(1037 mb)
WNW 3.5 mph
(WNW 6 kph)
- 10SM
11:55
Clear
37°F / 3°C 27°F / -3°C 65% 30.66 in
(1038 mb)
Calm - 10SM
10:55
Clear
36°F / 2°C 27°F / -3°C 70% 30.66 in
(1038 mb)
Calm - 10SM
09:55
Mostly Cloudy
32°F / 0°C 28°F / -2°C 87% 30.66 in
(1038 mb)
Calm - 10SM
08:55
Mostly Cloudy
30°F / -1°C 27°F / -3°C 86% 30.63 in
(1037 mb)
W 4.6 mph
(W 7 kph)
- 10SM
07:55
Clear
28°F / -2°C 25°F / -4°C 86% 30.63 in
(1037 mb)
NW 3.5 mph
(NW 6 kph)
- 10SM
06:55
Clear
30°F / -1°C 27°F / -3°C 86% 30.6 in
(1036 mb)
Calm - 10SM
05:55
Clear
30°F / -1°C 25°F / -4°C 80% 30.6 in
(1036 mb)
Calm - 10SM
04:55
Partly Cloudy
30°F / -1°C 25°F / -4°C 80% 30.57 in
(1035 mb)
NW 3.5 mph
(NW 6 kph)
- 10SM
03:55
Mostly Cloudy
30°F / -1°C 27°F / -3°C 86% 30.57 in
(1035 mb)
NE 3.5 mph
(NE 6 kph)
- 10SM
02:55
Clear
30°F / -1°C 28°F / -2°C 93% 30.57 in
(1035 mb)
NNW 3.5 mph
(NNW 6 kph)
- 10SM
01:55
Clear
30°F / -1°C 28°F / -2°C 93% 30.51 in
(1033 mb)
NW 3.5 mph
(NW 6 kph)
- 10SM
00:55
Clear
32°F / 0°C 28°F / -2°C 87% 30.51 in
(1033 mb)
SSW 8.1 mph
(SSW 13 kph)
- 10SM
Time Weather Temperature Dewpoint Humidity Pressure Winds Precip Visibility


Weather for websites

WeatherForYou.com, LLC is not responsible for any damages or problems caused by this service. Current weather conditions are obtained from the closest station including government and personal stations which may have varying degrees of accuracy. Weather forecasts are derived from the NOAA NDFD. Like all things, this site belongs to Jesus Christ... He just trusts us to maintain it. If you have any questions or comments email webmaster@weatherforyou.com

Copyright © 2016, WeatherForYou.com LLC. All rights reserved.